User: anonymous   Login
Location: Newark
(46.2350°N, 1.5859°E)
Time: 23:09:19
(UTC+00:00)
Language:

XW-2D - Orbit

View from above orbital plane
View from above orbital plane
View from above satellite
View from above satellite

Ground track
Ground track

The orbit data is extracted from the following two-line orbital elements,

1 40907U 15049J   19316.84238052  .00000510  00000-0  29919-4 0  9991
2 40907  97.4700 316.2136 0015560  49.9675  33.4866 15.16018754229302
Epoch (UTC): 12 November 2019 20:13:01
Eccentricity: 0.0015560
inclination: 97.4700°
perigee height: 507 km
apogee height: 528 km
right ascension of ascending node: 316.2136°
argument of perigee: 49.9675°
revolutions per day: 15.16018754
mean anomaly at epoch: 33.4866°
orbit number at epoch: 22930

The dashed part of the orbit path shows where the satellite is in the earth's shadow,  

DLR